EHI
0 0 0 0 0 0 0 0 0 0 0 0 0 0 0 0 0 0 0 0 0 0 0 0 0 0 0 0 0 0 0 0 0 0 0 0 0 0 0 0 0 0 0 0
0 0 0 0 0 0 0 0 0 0 0 0 0 0 0 0 0 0 0 0 0 0 0 0 0 0 0 0 0 0 0 0 0 0 0 0 0 0 0 0 0 0 0 0
0 0 0 0 0 0 0 0 0 0 0 0 0 0 0 0 0 0 0 0 0 0 0 0 0 0 0 0 0 0 0 0 0 0 0 0 0 0 0 0 0 0 0 0
0 0 0 0 0 0 0 0 0 0 0 0 0 0 0 0 0 0 0 0 0 0 0 0 0 0 0 0 0 0 0 0 0 0 0 0 0 0 0 0 0 0 0 0
0 0 0 0 0 0 0 0 0 0 0 0 0 0 0 0 0 0 0 0 0 0 0 0 0 0 0 0 0 0 0 0 0 0 0 0 0 0 0 0 0 0 0 0
0 0 0 0 0 0 0 0 0 0 0 0 0 0 0 0 0 0 0 0 0 0 0 0 0 0 0 0 0 0 0 0 0 0 0 0 0 0 0 0 0 0 0 0
0 0 0 0 0 0 0 0 0 0 0 0 0 0 0 0 0 0 0 0 0 0 0 0 0 0 0 0 0 0 0 0 0 0 0 0 0 0 0 0 0 0 0 0
0 0 0 0 0 0 0 0 0 0 0 0 0 0 0 0 0 0 0 0 0 0 0 0 0 0 0 0 0 0 0 0 0 0 0 0 0 0 0 0 0 0 0 0
0 0 0 0 0 0 0 0 0 0 0 0 0 0 0 0 0 0 0 0 0 0 0 0 0 0 0 0 0 0 0 0 0 0 0 0 0 0 0 0 0 0 0 0
0 0 0 0 0 0 0 0 0 0 0 0 0 0 0 0 0 0 0 0 0 0 0 0 0 0 0 0 0 0 0 0 0 0 0 0 0 0 0 0 0 0 0 0
0 0 0 0 0 0 0 0 0 0 0 0 0 0 0 0 0 0 0 0 0 0 0 0 0 0 0 0 0 0 0 0 0 0 0 0 0 0 0 0 0 0 0 0
0 0 0 0 0 0 0 0 0 0 0 0 0 0 0 0 0 0 0 0 0 0 0 0 0 0 0 0 0 0 0 0 0 0 0 0 0 0 0 0 0 0 0 0
0 0 0 0 0 0 0 0 0 0 0 0 0 0 0 0 0 0 0 0 0 0 0 0 0 0 0 0 0 0 0 0 0 0 0 0 0 0 0 0 0 0 0 0
0 0 0 0 0 0 0 0 0 0 0 0 0 0 0 0 0 0 0 0 0 0 0 0 0 0 0 0 0 0 0 0 0 0 0 0 0 0 0 0 0 0 0 0
0 0 0 0 0 0 0 0 0 0 0 0 0 0 0 0 0 0 0 0 0 0 0 0 0 0 0 0 0 0 0 0 0 0 0 0 0 0 0 0 0 0 0 0
0 0 0 0 0 0 0 0 0 0 0 0 0 0 0 0 0 0 0 0 0 0 0 0 0 0 0 0 0 0 0 0 0 0 0 0 0 0 0 0 0 0 0 0
0 0 0 0 0 0 0 0 0 0 0 0 0 0 0 0 0 0 0 0 0 0 0 0 0 0 0 0 0 0 0 0 0 0 0 0 0 0 0 0 0 0 0 0
0 0 0 0 0 0 0 0 0 0 0 0 0 0 0 0 0 0 0 0 0 0 0 0 0 0 0 0 0 0 0 0 0 0 0 0 0 0 0 0 0 0 0 0
0 0 0 0 0 0 0 0 0 0 0 0 0 0 0 0 0 0 0 0 0 0 0 0 0 0 0 0 0 0 0 0 0 0 0 0 0 0 0 0 0 0 0 0
0 0 0 0 0 0 0 0 0 0 0 0 0 0 0 0 0 0 0 0 0 0 0 0 0 0 0 0 0 0 0 0 0 0 0 0 0 0 0 0 0 0 0 0
0 0 0 0 0 0 0 0 0 0 0 0 0 0 0 0 0 0 0 0 0 0 0 0 0 0 0 0 0 0 0 0 0 0 0 0 0 0 0 0 0 0 0 0
0 0 0 0 0 0 0 0 0 0 0 0 0 0 0 0 0 0 0 0 0 0 0 0 0 0 0 0 0 0 0 0 0 0 0 0 0 0 0 0 0 0 0 0
0 0 0 0 0 0 0 0 0 0 0 0 0 0 0 0 0 0 0 0 0 0 0 0 0 0 0 0 0 0 0 0 0 0 0 0 0 0 0 0 0 0 0 0
0 0 0 0 0 0 0 0 0 0 0 0 0 0 0 0 0 0 0 0 0 0 0 0 0 0 0 0 0 0 0 0 0 0 0 0 0 0 0 0 0 0 0 0
0 0 0 0 0 0 0 0 0 0 0 0 0 0 0 0 0 0 0 0 0 0 0 0 0 0 0 0 0 0 0 0 0 0 0 0 0 0 0 0 0 0 0 0
0 0 0 0 0 0 0 0 0 0 0 0 0 0 0 0 0 0 0 0 0 0 0 0 0 0 0 0 0 0 0 0 0 0 0 0 0 0 0 0 0 0 0 0
0 0 0 0 0 0 0 0 0 0 0 0 0 0 0 0 0 0 0 0 0 0 0 0 0 0 0 0 0 0 0 0 0 0 0 0 0 0 0 0 0 0 0 0
Wind_Speed
6 6 6 7 8 8 6 3 5 7 9 10 9 9 9 9 9 9 9 10 10 9 9 9 10 10 10 9 9 9 10 10 9 8 8 8 7 7 7 6 6 5 5 5
5 6 9 11 11 8 7 6 7 9 6 6 9 8 8 8 9 10 10 10 10 10 9 9 9 8 8 8 7 8 8 8 7 7 7 7 6 6 6 6 5 4 4 3
1 2 4 8 7 5 5 5 3 3 5 9 9 8 7 8 9 9 10 10 10 9 8 7 7 7 7 6 6 7 7 6 6 6 6 6 6 5 5 4 3 3 2 2
3 4 4 0 1 4 6 7 6 8 8 9 10 9 8 7 9 10 10 10 9 8 8 7 6 6 6 6 6 6 6 5 5 5 5 4 4 4 3 2 2 2 2 2
4 4 1 1 1 1 3 4 4 9 10 11 11 10 8 8 9 10 9 9 8 7 7 6 6 5 6 6 5 5 5 4 4 4 4 3 3 2 2 2 2 2 2 2
4 4 2 1 2 0 4 2 2 6 9 9 4 5 4 7 10 10 9 8 8 7 7 6 5 5 7 6 5 4 3 3 3 3 3 2 2 2 2 1 2 2 3 3
4 2 1 2 3 1 1 3 4 6 7 5 4 5 8 9 9 9 9 8 8 7 6 5 4 6 6 5 4 3 3 3 3 2 2 1 2 1 2 2 3 3 3 3
3 2 2 4 1 3 3 3 5 6 6 8 10 11 10 10 9 9 9 8 7 7 6 4 4 5 5 3 2 2 3 3 2 1 1 2 2 2 2 2 3 3 3 3
4 4 3 2 1 2 4 6 5 6 8 12 12 11 10 9 8 8 8 6 5 6 5 4 3 4 4 2 2 3 3 2 1 2 2 2 1 1 2 2 2 2 2 3
3 1 2 3 3 4 4 5 7 9 11 12 12 11 10 9 8 7 6 5 5 5 5 3 2 2 2 2 2 3 2 1 1 1 1 2 1 1 1 1 1 1 2 2
2 2 3 2 3 5 7 10 11 10 9 10 12 11 10 8 7 6 5 4 4 4 4 2 2 1 1 1 3 2 1 0 1 1 1 1 1 1 0 1 1 1 1 1
6 7 6 5 4 6 9 9 10 11 9 8 9 9 9 7 5 5 5 4 4 4 3 2 1 0 0 1 2 2 0 1 1 1 0 1 1 1 3 1 1 1 2 2
4 5 5 7 6 6 7 8 9 9 10 9 7 8 8 6 5 5 5 5 4 3 2 1 1 1 1 0 2 2 2 1 1 0 0 0 1 0 1 3 3 3 3 4
7 8 7 5 6 7 9 10 10 9 8 8 7 8 8 6 5 5 5 4 3 3 2 1 0 1 2 1 1 1 1 1 1 1 1 1 1 1 0 1 2 3 4 5
4 5 8 9 9 9 10 11 12 10 8 7 7 8 8 7 6 4 3 3 3 2 1 1 0 2 2 1 0 1 1 1 1 1 1 1 1 1 1 1 1 2 3 4
8 9 12 12 12 11 11 12 11 9 8 7 7 7 7 6 5 4 3 3 3 2 1 0 1 2 2 1 0 0 0 1 2 2 2 2 2 1 1 1 1 2 3 3
11 9 9 11 11 10 9 10 10 10 8 8 7 7 7 6 4 3 2 1 2 2 1 0 1 2 1 1 1 1 1 1 3 3 2 2 1 1 1 1 1 2 2 3
10 11 12 14 13 11 10 10 10 10 9 8 8 7 7 6 4 3 2 2 2 1 1 1 1 1 2 2 0 1 2 2 2 2 2 1 1 1 1 1 1 2 2 3
9 10 10 10 11 11 11 10 9 9 8 9 8 7 6 5 4 3 2 2 2 1 2 2 1 1 2 3 0 1 2 3 2 2 2 3 3 2 2 2 2 2 2 3
9 11 11 11 10 10 11 10 10 9 8 8 8 6 5 3 3 3 2 2 2 2 2 1 0 1 2 2 1 2 3 3 3 3 2 2 2 2 2 2 2 2 2 3
12 12 13 12 10 10 11 11 10 9 8 8 8 7 5 3 3 3 2 1 2 1 1 1 0 1 2 1 1 2 3 3 3 3 3 2 2 2 2 1 1 1 2 2
12 12 12 12 11 10 9 9 9 9 8 7 6 6 5 3 3 2 1 2 2 1 1 0 1 2 1 1 2 2 3 3 3 3 3 3 2 2 1 1 1 1 1 2
10 11 12 12 12 10 9 8 9 9 8 7 7 6 5 4 3 3 2 2 2 2 2 1 2 2 2 2 2 2 3 3 3 3 3 2 2 2 1 1 1 0 1 1
10 10 11 10 10 10 9 8 7 7 7 7 6 6 5 4 2 3 2 2 4 4 2 2 2 1 3 2 2 2 2 2 2 2 3 2 2 2 1 1 1 0 0 1
10 10 10 11 11 9 8 8 7 6 6 4 4 5 4 4 4 3 3 3 4 4 2 2 2 2 2 2 2 2 2 2 3 3 3 3 2 2 2 1 1 1 0 0
9 9 9 9 8 7 7 7 5 5 5 4 3 3 3 2 2 3 3 3 4 4 3 2 2 2 2 2 2 2 2 2 3 3 3 3 3 2 2 2 2 1 1 1
9 8 6 6 5 7 7 7 6 6 6 5 4 4 4 3 3 3 3 3 2 2 2 2 2 3 3 3 3 3 2 2 2 2 3 2 2 2 2 3 2 1 1 1
Wind_Direction
69 67 78 63 36 35 57 108 144 148 141 150 146 138 131 124 118 110 103 96 91 89 84 80 77 74 74 73 69 72 74 74 73 73 76 76 74 74 77 80 84 81 79 70
62 63 71 56 30 31 39 44 89 106 96 113 116 115 120 122 120 115 109 104 99 94 89 85 84 83 80 78 75 78 80 80 79 78 75 73 72 72 70 68 66 64 59 53
86 314 43 35 3 25 47 34 66 110 115 123 114 111 119 125 122 119 116 113 108 100 92 88 86 89 88 86 85 82 82 82 80 77 75 72 76 73 69 60 55 50 36 31
86 54 62 279 356 74 78 51 64 92 104 104 101 87 77 96 113 115 114 112 108 104 98 91 89 90 91 89 88 87 86 84 83 85 84 82 81 74 62 48 36 12 359 358
92 87 99 243 43 52 90 64 75 113 111 108 110 90 67 75 98 107 109 107 104 103 103 99 97 101 98 90 88 89 91 92 94 98 95 86 76 57 37 31 16 357 349 358
98 111 184 247 336 96 105 98 127 129 132 133 120 106 105 101 103 103 103 103 103 100 96 92 91 100 99 96 94 94 98 100 98 99 100 94 75 52 32 27 13 13 26 19
88 100 278 305 313 112 146 215 148 139 137 126 92 114 121 112 102 102 102 102 101 97 93 93 101 103 100 100 101 100 99 98 90 88 97 98 70 49 40 45 44 36 31 19
107 103 254 331 44 151 183 121 115 121 115 109 111 112 113 111 108 106 104 102 102 100 94 89 99 106 105 106 111 102 97 88 69 52 37 85 80 55 49 58 50 28 15 5
161 194 252 332 59 91 124 115 113 118 121 125 123 121 117 112 110 107 106 104 104 108 100 85 94 114 119 136 128 108 91 68 35 32 42 60 85 79 61 52 48 22 12 356
96 62 45 53 65 70 86 104 113 122 129 130 126 125 120 118 115 110 109 109 110 107 103 92 89 109 139 150 130 113 95 60 20 28 28 38 52 87 112 96 51 15 357 343
104 145 101 61 91 104 96 102 106 108 116 125 126 127 126 124 121 118 114 108 110 113 113 106 89 79 101 133 130 123 113 25 3 20 16 39 51 43 70 214 209 215 282 294
198 194 164 169 146 128 121 122 125 119 111 115 124 125 123 120 121 121 119 115 115 117 123 131 137 162 261 160 152 154 219 290 308 332 3 77 83 37 30 28 348 270 253 267
164 133 122 125 122 121 122 125 123 120 124 121 116 121 121 118 120 121 123 130 141 152 159 165 160 315 316 242 170 185 228 259 269 265 209 169 144 111 2 353 1 7 354 343
125 112 106 119 125 120 120 118 112 107 110 115 117 118 115 113 120 128 141 153 156 152 153 154 165 305 317 293 187 219 232 246 219 222 202 170 162 152 122 30 356 348 350 355
100 113 127 120 112 114 119 120 118 116 115 111 118 123 124 127 135 144 147 139 132 138 155 153 301 317 337 5 152 223 225 227 182 145 125 119 121 117 96 52 20 351 345 347
100 101 115 123 127 130 131 132 131 132 129 126 128 131 133 133 132 133 140 148 148 171 182 136 316 315 336 24 61 77 218 172 143 123 107 107 108 104 83 52 28 7 0 351
127 133 136 139 141 143 144 144 142 140 137 135 137 131 123 118 116 125 143 155 158 162 147 118 311 320 334 324 230 182 134 119 120 110 109 116 113 108 92 61 25 9 1 356
154 155 156 153 151 147 141 138 139 139 139 139 133 129 131 139 153 172 171 128 110 81 24 331 308 322 336 344 325 165 148 137 126 121 115 107 104 95 83 62 35 28 8 358
130 136 138 142 145 144 143 142 141 139 136 136 137 144 152 161 166 166 151 143 149 228 304 331 349 9 329 324 334 144 140 132 117 107 105 111 98 84 78 70 55 37 21 11
130 134 136 136 136 138 140 140 138 137 140 139 136 137 145 164 163 151 147 170 221 231 259 265 322 323 320 327 70 128 132 132 129 122 112 108 104 96 89 80 63 43 23 12
140 140 141 142 140 141 143 143 143 144 145 144 146 157 168 174 159 145 143 239 283 268 232 200 260 305 311 342 93 122 126 128 131 130 128 124 118 110 101 82 64 46 23 8
145 145 146 144 141 141 144 144 145 145 145 149 151 151 151 156 154 152 190 216 245 189 141 172 289 303 309 96 110 124 126 128 131 131 134 137 138 135 126 112 81 48 23 8
146 147 147 148 148 145 141 144 147 149 152 157 159 164 170 173 165 163 224 233 200 170 158 227 272 308 93 100 120 132 139 142 145 147 150 152 154 153 148 140 128 87 18 1
144 146 146 142 137 139 146 156 153 155 160 165 172 172 162 158 188 213 205 188 174 170 179 230 231 121 100 105 120 133 145 150 150 149 149 148 151 154 157 160 163 164 343 2
144 142 141 144 150 156 157 151 144 148 151 159 173 178 175 172 179 192 182 186 184 177 192 223 209 158 124 124 130 136 146 160 161 157 158 158 163 169 176 180 187 195 224 7
146 152 156 161 159 154 152 149 149 154 154 160 179 188 181 176 170 154 166 183 189 191 196 209 204 176 161 153 149 148 146 147 152 157 164 164 171 176 184 195 204 202 187 157
140 143 143 143 145 152 155 157 158 165 168 167 180 192 186 178 172 175 179 184 195 212 219 215 203 190 181 171 166 161 155 154 157 159 163 168 174 186 196 199 195 184 174 173